N9CQS-13 Weather Reports


time (UTC)temp
C
wind
direction
speed
KPH
gust
KPH
rain 1hr
cm
rain 24hr
cm
rain mn
cm
humidity
%
barometer
mb
20260905224132 32 23 8.0 9.7 0.00 0.00 0.00 64 1011.8
20260905223131 32 338 8.0 9.7 0.00 0.00 0.00 63 1011.5
20260905222132 33 23 6.4 9.7 0.00 0.00 0.00 63 1011.5
20260905221131 33 23 6.4 6.4 0.00 0.00 0.00 63 1011.5
20260905220131 33 270 6.4 9.7 0.00 0.00 0.00 62 1011.5
20260905215132 33 0 6.4 11.3 0.00 0.00 0.00 63 1011.5
20260905214131 33 23 6.4 8.0 0.00 0.00 0.00 63 1011.5
20260905213132 33 0 9.7 9.7 0.00 0.00 0.00 62 1011.5
20260905212132 33 23 3.2 8.0 0.00 0.00 0.00 62 1011.5
20260905211132 33 338 4.8 4.8 0.00 0.00 0.00 61 1011.8
20260905210132 34 23 8.0 9.7 0.00 0.00 0.00 60 1011.8
20260905205132 34 0 6.4 9.7 0.00 0.00 0.00 60 1011.8
20260905203133 35 338 4.8 6.4 0.00 0.00 0.00 58 1011.8
20260905202132 34 293 6.4 9.7 0.00 0.00 0.00 57 1011.8
20260905200131 35 293 8.0 8.0 0.00 0.00 0.00 56 1011.8
20260905195131 35 293 4.8 8.0 0.00 0.00 0.00 54 1011.8
20260905194132 35 270 3.2 8.0 0.00 0.00 0.00 56 1012.1
20260905193131 33 293 6.4 8.0 0.00 0.00 0.00 59 1012.1
20260905192132 35 293 9.7 9.7 0.00 0.00 0.00 55 1012.1
20260905191132 35 293 8.0 8.0 0.00 0.00 0.00 54 1012.5
20260905190132 36 293 4.8 8.0 0.00 0.00 0.00 54 1012.5
20260905185131 35 23 6.4 6.4 0.00 0.00 0.00 56 1012.5
20260905184131 33 315 4.8 6.4 0.00 0.00 0.00 61 1012.5
20260905183131 33 293 6.4 6.4 0.00 0.00 0.00 59 1012.8
20260905182131 35 293 6.4 8.0 0.00 0.00 0.00 57 1012.8
20260905181132 36 293 6.4 6.4 0.00 0.00 0.00 53 1012.8
20260905180131 35 270 3.2 6.4 0.00 0.00 0.00 51 1012.8
20260905174132 35 293 6.4 9.7 0.00 0.00 0.00 54 1012.8
20260905173132 35 315 6.4 8.0 0.00 0.00 0.00 54 1013.2
20260905172131 35 293 6.4 8.0 0.00 0.00 0.00 56 1013.2
20260905171131 35 270 6.4 6.4 0.00 0.00 0.00 55 1013.2
20260905170131 34 293 8.0 9.7 0.00 0.00 0.00 57 1013.2
20260905165132 35 270 3.2 4.8 0.00 0.00 0.00 60 1013.2
20260905164132 35 203 3.2 6.4 0.00 0.00 0.00 59 1013.2
20260905163132 34 293 6.4 6.4 0.00 0.00 0.00 59 1013.5
20260905162131 33 270 1.6 6.4 0.00 0.00 0.00 64 1013.2
20260905161132 34 225 3.2 3.2 0.00 0.00 0.00 61 1013.5
20260905160131 33 270 4.8 6.4 0.00 0.00 0.00 62 1013.5
20260905155132 32 248 3.2 4.8 0.00 0.00 0.00 67 1013.5
20260905154131 32 270 3.2 4.8 0.00 0.00 0.00 66 1013.5
20260905153132 32 293 4.8 4.8 0.00 0.00 0.00 67 1013.2
20260905152131 32 270 3.2 4.8 0.00 0.00 0.00 69 1013.2
20260905151132 31 270 3.2 3.2 0.00 0.00 0.00 67 1013.2
20260905150131 31 248 6.4 6.4 0.00 0.00 0.00 70 1013.2
20260905145131 30 225 4.8 4.8 0.00 0.00 0.00 72 1013.2
20260905144132 30 270 3.2 4.8 0.00 0.00 0.00 74 1013.2
20260905143132 29 293 6.4 6.4 0.00 0.00 0.00 75 1013.2
20260905142132 28 203 1.6 4.8 0.00 0.00 0.00 77 1013.2
20260905141131 28 248 3.2 3.2 0.00 0.00 0.00 77 1013.5
20260905140132 27 180 3.2 4.8 0.00 0.00 0.00 77 1013.2
20260905135131 27 225 4.8 4.8 0.00 0.00 0.00 77 1013.2
20260905134131 27 203 3.2 4.8 0.00 0.00 0.00 80 1013.2
20260905132131 26 180 4.8 4.8 0.00 0.00 0.00 81 1013.2
20260905131437 26 180 0.0 0.0 0.00 0.00 0.00 82 1013.5
20260905131132 26 180 0.0 0.0 0.00 0.00 0.00 82 1013.5
20260905130131 25 203 3.2 4.8 0.00 0.00 0.00 82 1013.2
20260905125132 25 203 0.0 3.2 0.00 0.00 0.00 83 1013.2
20260905124132 25 180 0.0 3.2 0.00 0.00 0.00 83 1013.2
20260905123131 25 180 3.2 3.2 0.00 0.00 0.00 83 1013.2
20260905122132 25 135 0.0 0.0 0.00 0.00 0.00 84 1013.2
20260905121132 25 180 0.0 0.0 0.00 0.00 0.00 85 1013.2
20260905120133 24 180 0.0 0.0 0.00 0.00 0.00 86 1012.8
20260905115133 24 180 0.0 0.0 0.00 0.00 0.00 86 1012.8
20260905114132 24 180 0.0 0.0 0.00 0.00 0.00 86 1012.8
20260905113132 24 180 0.0 0.0 0.00 0.00 0.00 86 1012.8
20260905112132 24 180 0.0 0.0 0.00 0.00 0.00 86 1012.5
20260905111132 24 203 0.0 0.0 0.00 0.00 0.00 86 1012.8
20260905110133 24 180 0.0 0.0 0.00 0.00 0.00 86 1012.5
20260905105132 24 180 0.0 0.0 0.00 0.00 0.00 86 1012.8
20260905104134 24 180 0.0 0.0 0.00 0.00 0.00 86 1012.8
20260905103132 24 180 0.0 0.0 0.00 0.00 0.00 86 1012.8
20260905102133 24 180 0.0 0.0 0.00 0.00 0.00 86 1012.8
20260905101132 24 225 0.0 0.0 0.00 0.00 0.00 86 1012.8
20260905095132 24 270 0.0 0.0 0.00 0.00 0.00 86 1012.8
20260905094132 24 180 0.0 0.0 0.00 0.00 0.00 86 1012.8
20260905093132 24 293 0.0 0.0 0.00 0.00 0.00 86 1012.8
20260905092132 24 180 0.0 3.2 0.00 0.00 0.00 86 1012.8
20260905091132 24 180 0.0 0.0 0.00 0.00 0.00 85 1012.8
20260905090132 24 203 0.0 3.2 0.00 0.00 0.00 85 1012.5
20260905085132 24 270 0.0 0.0 0.00 0.00 0.00 85 1012.5
20260905084132 25 180 0.0 0.0 0.00 0.00 0.00 84 1012.5
20260905083133 25 180 0.0 0.0 0.00 0.00 0.00 84 1012.5
20260905082132 25 158 0.0 0.0 0.00 0.00 0.00 84 1012.5
20260905081132 25 180 0.0 0.0 0.00 0.00 0.00 84 1012.5
20260905080132 25 180 0.0 0.0 0.00 0.00 0.00 84 1012.5
20260905075132 25 180 0.0 0.0 0.00 0.00 0.00 85 1012.1
20260905074132 25 203 0.0 0.0 0.00 0.00 0.00 85 1012.5
20260905073132 25 158 0.0 0.0 0.00 0.00 0.00 85 1012.5
20260905072132 25 180 0.0 0.0 0.00 0.00 0.00 85 1012.5
20260905071132 25 180 0.0 0.0 0.00 0.00 0.00 84 1012.8
20260905070132 25 180 0.0 0.0 0.00 0.00 0.00 84 1012.8
20260905065132 25 180 0.0 0.0 0.00 0.00 0.00 84 1012.8
20260905064132 25 180 0.0 0.0 0.00 0.00 0.00 84 1012.8
20260905063132 25 203 0.0 0.0 0.00 0.00 0.00 84 1012.8
20260905062132 25 158 0.0 0.0 0.00 0.00 0.00 84 1012.8
20260905061132 25 180 0.0 0.0 0.00 0.00 0.00 84 1012.8
20260905060132 25 293 0.0 0.0 0.00 0.00 0.00 83 1012.8
20260905055132 25 270 0.0 0.0 0.00 0.00 0.00 83 1012.8
20260905054132 25 225 0.0 0.0 0.00 0.00 0.00 82 1012.8
20260905053132 25 203 0.0 0.0 0.00 0.00 0.00 82 1012.8
20260905052132 25 203 0.0 0.0 0.00 0.00 0.00 81 1012.8
20260905051132 26 180 0.0 0.0 0.00 0.00 0.00 81 1012.8
20260905050132 26 203 0.0 0.0 0.00 0.00 0.00 80 1012.8
20260905045132 26 203 0.0 0.0 0.00 0.00 0.00 79 1013.2
20260905044132 26 315 0.0 0.0 0.00 0.00 0.00 79 1013.2
20260905042132 26 293 0.0 0.0 0.00 0.00 0.00 78 1013.2
20260905041132 27 180 0.0 0.0 0.00 0.00 0.00 78 1013.2
20260905040134 27 180 0.0 0.0 0.00 0.00 0.00 78 1013.2
20260905035132 27 180 0.0 0.0 0.00 0.00 0.00 77 1013.2
20260905035126 27 180 0.0 0.0 0.00 0.00 0.00 77 1013.2
20260905034132 27 180 0.0 0.0 0.00 0.00 0.00 77 1013.2
20260905033133 27 203 0.0 0.0 0.00 0.00 0.00 76 1013.2
20260905031132 28 0 0.0 0.0 0.00 0.00 0.00 75 1013.2
20260905030132 28 45 1.6 1.6 0.00 0.00 0.00 75 1013.2
20260905025132 28 158 0.0 3.2 0.00 0.00 0.00 74 1013.2
20260905024132 28 135 1.6 3.2 0.00 0.00 0.00 74 1013.2
20260905023132 28 135 0.0 3.2 0.00 0.00 0.00 74 1012.8
20260905022133 28 203 0.0 3.2 0.00 0.00 0.00 74 1012.8
20260905021132 28 68 3.2 3.2 0.00 0.00 0.00 75 1012.8
20260905020132 28 68 0.0 1.6 0.00 0.00 0.00 75 1012.8
20260905014132 29 180 0.0 3.2 0.00 0.00 0.00 71 1012.5
20260905013132 30 158 0.0 1.6 0.00 0.00 0.00 71 1012.5
20260905012132 30 180 0.0 3.2 0.00 0.00 0.00 69 1012.5
20260905010132 30 338 0.0 0.0 0.00 0.00 0.00 66 1012.1
20260905005131 30 90 0.0 3.2 0.00 0.00 0.00 67 1012.1
20260905004132 31 180 0.0 3.2 0.00 0.00 0.00 67 1012.1
20260905003132 31 45 3.2 3.2 0.00 0.00 0.00 68 1012.1
20260905002132 31 45 1.6 1.6 0.00 0.00 0.00 67 1012.1
20260905001133 32 158 0.0 0.0 0.00 0.00 0.00 64 1012.1
20260905000131 32 90 3.2 3.2 0.00 0.00 0.00 64 1012.1
20260904235132 32 135 0.0 3.2 0.00 0.00 0.00 63 1012.1
20260904234132 33 203 0.0 0.0 0.00 0.00 0.00 63 1012.1
20260904233132 33 45 0.0 0.0 0.00 0.00 0.00 61 1012.1
20260904232131 33 180 0.0 0.0 0.00 0.00 0.00 59 1012.1
20260904231132 33 225 0.0 0.0 0.00 0.00 0.00 57 1012.1
20260904230131 34 180 0.0 3.2 0.00 0.00 0.00 56 1012.1
20260904225132 34 180 0.0 4.8 0.00 0.00 0.00 55 1012.1